"2016-07-26 00:00:00",1841689,1.373,176.8,42.62,1.251,25.84,110.969,27.39,28.39,35.2,0,111.7,12.92,28.23,138.8
"2016-07-26 00:00:30",1841690,1.485,172.6,22.81,1.309,25.83,110.9552,27.35,28.38,35.07,0,111.6,12.93,28.20,134.6
"2016-07-26 00:01:00",1841691,1.797,166.6,23.79,1.348,25.93,110.9541,27.35,28.36,34.64,0,111.6,12.93,28.19,128.6
"2016-07-26 00:01:30",1841692,3.133,168.7,8.23,1.349,25.86,110.9535,27.35,28.35,35.1,0,111.7,12.93,28.19,130.7
"2016-07-26 00:02:00",1841693,1.531,168.8,5.485,1.035,26.11,110.9551,27.35,28.34,35.2,0,111.7,12.93,28.20,130.8
"2016-07-26 00:02:30",1841694,0.051,158.9,64.54,0.377,26.35,110.9541,27.35,28.34,35.28,0,111.7,12.93,28.19,120.9
"2016-07-26 00:03:00",1841695,0.434,158,94.4,0.565,26.37,110.956,27.35,28.34,35.37,0,111.7,12.93,28.20,120.0
"2016-07-26 00:03:30",1841696,0.22,181.9,88,0.617,26.45,110.9541,27.35,28.34,35.24,0,111.7,12.93,28.19,143.9
"2016-07-26 00:04:00",1841697,0.23,239.1,68.66,0.488,26.48,110.9563,27.35,28.34,35.24,0,111.7,12.93,28.20,201.1
"2016-07-26 00:04:30",1841698,0.348,113,82.6,0.644,26.51,110.9569,27.35,28.33,35.32,0,111.7,12.93,28.20,75.0
"2016-07-26 00:05:00",1841699,0.404,183.9,54.2,0.779,26.34,110.9586,27.36,28.32,35.19,0,111.6,12.93,28.21,145.9
"2016-07-26 00:05:30",1841700,0.565,70.7,63.73,0.406,26.2,110.9553,27.35,28.31,35.1,0,111.6,12.93,28.20,32.7
"2016-07-26 00:06:00",1841701,0.588,12.05,45.93,0.516,26.2,110.9464,27.33,28.31,34.78,0,111.6,12.93,28.17,334.0
"2016-07-26 00:06:30",1841702,0.474,354.7,35.09,0.289,26.32,110.9361,27.3,28.3,34.33,0,111.6,12.93,28.15,316.7
"2016-07-26 00:07:00",1841703,0.385,321.2,30.66,0.402,26.3,110.9314,27.29,28.3,34.41,0,111.6,12.93,28.14,283.2
"2016-07-26 00:07:30",1841704,0.436,28.52,28.52,0.322,26.37,110.9311,27.29,28.29,34.36,0,111.6,12.93,28.13,350.5
"2016-07-26 00:08:00",1841705,0.456,23.81,24.61,0.277,26.28,110.9289,27.28,28.27,34.18,0,111.6,12.93,28.13,345.8
"2016-07-26 00:08:30",1841706,0.847,51.14,27.13,0.463,26.27,110.9143,27.24,28.28,34.08,0,111.6,12.93,28.09,13.1
"2016-07-26 00:09:00",1841707,0.429,23.28,34.38,0.288,26.33,110.8984,27.2,28.25,34.17,0,111.6,12.93,28.05,345.3
"2016-07-26 00:09:30",1841708,0.273,341.3,50.69,0.398,26.32,110.8981,27.2,28.23,34.26,0,111.6,12.93,28.05,303.3
"2016-07-26 00:10:00",1841709,0.489,325.7,34.25,0.393,26.23,110.893,27.19,28.22,34.33,0,111.6,12.93,28.04,287.7
"2016-07-26 00:10:30",1841710,0.324,20.18,38.33,0.286,26.22,110.8782,27.15,28.22,34.33,0,111.6,12.93,28.00,342.2
"2016-07-26 00:11:00",1841711,0.077,1.801,73.55,0.263,26.31,110.8664,27.12,28.2,34.45,0,111.6,12.93,27.97,323.8
"2016-07-26 00:11:30",1841712,-0.063,24.86,52.86,0.196,26.42,110.8644,27.12,28.17,34.5,0,111.6,12.93,27.96,346.9
"2016-07-26 00:12:00",1841713,-0.087,16.83,65.06,0.21,26.43,110.8644,27.12,28.16,34.46,0,111.6,12.93,27.96,338.8
"2016-07-26 00:12:30",1841714,0.576,45.69,18.67,0.532,26.46,110.8552,27.09,28.13,34.27,0,111.6,12.93,27.94,7.7
"2016-07-26 00:13:00",1841715,0.787,63.59,24.69,0.457,26.5,110.8378,27.05,28.14,34.26,0,111.6,12.93,27.89,25.6
"2016-07-26 00:13:30",1841716,0.345,85.1,96.5,0.622,26.58,110.8308,27.03,28.11,34.54,0,111.6,12.93,27.88,47.1
"2016-07-26 00:14:00",1841717,0.429,86.1,28.02,0.453,26.67,110.8308,27.03,28.1,34.73,0,111.6,12.93,27.88,48.1
"2016-07-26 00:14:30",1841718,0.742,115.1,36.43,0.402,26.69,110.8269,27.02,28.08,34.72,0,111.6,12.93,27.87,77.1
"2016-07-26 00:15:00",1841719,0.926,125.7,7.209,0.502,26.78,110.8143,26.99,28.07,34.81,0,111.6,12.93,27.83,87.7
"2016-07-26 00:15:30",1841720,0.727,69.88,25.3,0.378,26.72,110.8014,26.95,28.06,34.87,0,111.6,12.93,27.80,31.9
"2016-07-26 00:16:00",1841721,0.741,73.27,14.8,0.227,26.63,110.7984,26.95,28.04,34.21,0,111.6,12.93,27.79,35.3
"2016-07-26 00:16:30",1841722,0.505,74.16,22.87,0.272,26.62,110.8046,26.96,28.01,34.31,0,111.6,12.93,27.81,36.2
"2016-07-26 00:17:00",1841723,0.373,60.94,10.58,0.302,26.61,110.7962,26.94,28.02,34.35,0,111.6,12.94,27.79,22.9
"2016-07-26 00:17:30",1841724,0.442,75.41,11.21,0.194,26.5,110.7895,26.92,28,34.29,0,111.6,12.94,27.77,37.4
"2016-07-26 00:18:00",1841725,0.198,106.8,19.47,0.181,26.5,110.7873,26.92,27.99,33.73,0,111.6,12.94,27.76,68.8
"2016-07-26 00:18:30",1841726,0.481,83.9,22.68,0.38,26.39,110.7896,26.92,27.98,34.52,0,111.6,12.94,27.77,45.9
"2016-07-26 00:19:00",1841727,1.076,51.19,5.443,0.175,26.19,110.7912,26.93,27.95,35,0,111.6,12.95,27.77,13.2
"2016-07-26 00:19:30",1841728,0.458,68.93,20.86,0.394,26.28,110.78,26.9,27.94,35.09,0,111.6,12.95,27.75,30.9
"2016-07-26 00:20:00",1841729,0.174,93.9,18.17,0.197,26.3,110.7651,26.86,27.93,35.22,0,111.6,12.95,27.71,55.9
"2016-07-26 00:20:30",1841730,0.673,60.03,9.03,0.329,26.44,110.7591,26.85,27.9,35.14,0,111.6,12.95,27.69,22.0
"2016-07-26 00:21:00",1841731,0.924,50.75,4.518,0.198,26.45,110.7594,26.85,27.88,35.06,0,111.5,12.95,27.69,12.8
"2016-07-26 00:21:30",1841732,0.947,47.08,5.524,0.126,26.52,110.7529,26.83,27.87,35.05,0,111.5,12.95,27.68,9.1
"2016-07-26 00:22:00",1841733,1.085,49.2,4.431,0.243,26.49,110.7408,26.8,27.85,35.13,0,111.5,12.95,27.64,11.2
"2016-07-26 00:22:30",1841734,1.095,50.13,4.645,0.306,26.42,110.7326,26.78,27.84,35.12,0,111.5,12.95,27.62,12.1
"2016-07-26 00:23:00",1841735,0.529,49.82,13.04,0.185,26.54,110.7329,26.78,27.81,35.11,0,111.5,12.95,27.62,11.8
"2016-07-26 00:23:30",1841736,0.308,43.2,8.82,0.23,26.56,110.7195,26.74,27.81,35.17,0,111.5,12.95,27.59,5.2
"2016-07-26 00:24:00",1841737,0.12,37.57,6.274,0.119,26.57,110.7041,26.7,27.79,35.25,0,111.5,12.95,27.55,359.6
"2016-07-26 00:24:30",1841738,0.168,83.9,33.77,0.189,26.54,110.6999,26.69,27.76,35.31,0,111.5,12.95,27.54,45.9
"2016-07-26 00:25:00",1841739,0.08,44.19,20.11,0.205,26.58,110.6999,26.69,27.74,35.38,0,111.5,12.95,27.54,6.2
"2016-07-26 00:25:30",1841740,-0.113,64.08,31.88,0.139,26.56,110.6999,26.69,27.73,35.44,0,111.5,12.95,27.54,26.1
"2016-07-26 00:26:00",1841741,-0.038,53.38,19.73,0.145,26.54,110.6982,26.69,27.72,35.52,0,111.5,12.95,27.53,15.4
"2016-07-26 00:26:30",1841742,-0.193,49.11,24.63,0.105,26.54,110.6842,26.65,27.7,35.62,0,111.5,12.95,27.50,11.1
"2016-07-26 00:27:00",1841743,-0.143,49.94,15.33,0.099,26.49,110.6755,26.63,27.68,35.73,0,111.5,12.95,27.48,11.9
"2016-07-26 00:27:30",1841744,-0.211,67.14,32.17,0.12,26.52,110.6704,26.62,27.68,35.78,0,111.5,12.95,27.46,29.1
"2016-07-26 00:28:00",1841745,-0.172,81.9,27.4,0.112,26.43,110.6665,26.61,27.67,35.77,0,111.5,12.95,27.45,43.9
"2016-07-26 00:28:30",1841746,-0.196,77.91,26.45,0.098,26.39,110.6662,26.61,27.66,35.83,0,111.5,12.95,27.45,39.9
"2016-07-26 00:29:00",1841747,-0.25,49.34,17.27,0.047,26.33,110.6662,26.61,27.66,35.89,0,111.5,12.95,27.45,11.3
"2016-07-26 00:29:30",1841748,-0.167,76.57,25.34,0.075,26.19,110.6668,26.61,27.65,35.87,0,111.5,12.95,27.45,38.6
"2016-07-26 00:30:00",1841749,-0.234,62.78,18.17,0.062,26.15,110.6662,26.61,27.64,35.84,0,111.5,12.95,27.45,24.8
"2016-07-26 00:30:30",1841750,-0.258,41.98,27.86,0.05,26.2,110.6665,26.61,27.64,35.96,0,111.5,12.95,27.45,4.0
"2016-07-26 00:31:00",1841751,-0.236,72,19.3,0.052,25.95,110.6675,26.61,27.64,35.99,0,111.5,12.95,27.45,34.0
"2016-07-26 00:31:30",1841752,-0.242,90.9,16.71,0.058,25.93,110.6678,26.61,27.65,35.89,0,111.5,12.95,27.46,52.9
"2016-07-26 00:32:00",1841753,-0.275,104.5,14.19,0.033,25.92,110.6693,26.61,27.63,35.82,0,111.5,12.95,27.46,66.5
"2016-07-26 00:32:30",1841754,-0.306,173.4,80.2,0.007,25.69,110.6687,26.61,27.64,35.76,0,111.5,12.95,27.46,135.4
"2016-07-26 00:33:00",1841755,-0.289,197.4,13.75,0.023,25.33,110.6703,26.62,27.63,35.74,0,111.5,12.95,27.46,159.4
"2016-07-26 00:33:30",1841756,-0.287,202.3,72.52,0.028,25.32,110.6775,26.64,27.63,35.66,0,111.5,12.95,27.48,164.3
"2016-07-26 00:34:00",1841757,-0.301,92.9,31.64,0.012,25.44,110.6778,26.64,27.65,35.67,0,111.5,12.95,27.48,54.9
"2016-07-26 00:34:30",1841758,-0.308,115.5,16.07,0.008,25.65,110.6856,26.66,27.65,35.62,0,111.5,12.95,27.50,77.5
"2016-07-26 00:35:00",1841759,-0.279,111.7,62.5,0.062,25.68,110.6951,26.68,27.65,35.61,0,111.5,12.95,27.53,73.7
"2016-07-26 00:35:30",1841760,-0.224,111.4,30.42,0.071,25.67,110.6999,26.69,27.66,35.59,0,111.5,12.95,27.54,73.4
"2016-07-26 00:36:00",1841761,-0.183,93.1,26,0.132,25.82,110.7002,26.69,27.67,35.42,0,111.5,12.96,27.54,55.1
"2016-07-26 00:36:30",1841762,-0.256,57.95,16.38,0.055,26,110.6999,26.69,27.67,35.28,0,111.5,12.96,27.54,20.0
"2016-07-26 00:37:00",1841763,-0.202,80.8,35.27,0.086,25.94,110.6999,26.69,27.69,35.25,0,111.5,12.96,27.54,42.8
"2016-07-26 00:37:30",1841764,-0.146,53.51,29.58,0.087,25.85,110.6999,26.69,27.7,35.17,0,111.5,12.96,27.54,15.5
"2016-07-26 00:38:00",1841765,-0.222,345.4,46.76,0.058,25.91,110.7021,26.7,27.7,35.12,0,111.5,12.96,27.54,307.4
"2016-07-26 00:38:30",1841766,-0.242,348.6,75.02,0.065,26.01,110.7083,26.71,27.71,35.06,0,111.5,12.96,27.56,310.6
"2016-07-26 00:39:00",1841767,-0.219,59.45,43.48,0.122,26.02,110.7203,26.75,27.73,34.98,0,111.5,12.96,27.59,21.5
"2016-07-26 00:39:30",1841768,-0.264,54.61,81.2,0.051,26.02,110.729,26.77,27.74,34.83,0,111.5,12.96,27.61,16.6
"2016-07-26 00:40:00",1841769,-0.228,18.19,62.31,0.074,25.89,110.7335,26.78,27.74,34.71,0,111.5,12.96,27.63,340.2
"2016-07-26 00:40:30",1841770,-0.255,47.98,47.17,0.062,26.01,110.7335,26.78,27.75,34.54,0,111.5,12.96,27.63,10.0
"2016-07-26 00:41:00",1841771,-0.081,156.7,17.07,0.154,25.98,110.7335,26.78,27.78,34.52,0,111.5,12.96,27.63,118.7
"2016-07-26 00:41:30",1841772,0.23,162.2,14.22,0.242,25.85,110.7341,26.78,27.79,34.69,0,111.5,12.96,27.63,124.2
"2016-07-26 00:42:00",1841773,0.096,165.4,41.73,0.352,25.77,110.7433,26.81,27.8,34.71,0,111.5,12.96,27.65,127.4
"2016-07-26 00:42:30",1841774,0.676,177.2,3.644,0.169,25.56,110.7562,26.84,27.82,34.81,0,111.5,12.96,27.68,139.2
"2016-07-26 00:43:00",1841775,0.638,179.1,3.212,0.118,25.58,110.7621,26.85,27.83,35.2,0,111.5,12.96,27.70,141.1
"2016-07-26 00:43:30",1841776,0.641,177.7,2.395,0.052,25.48,110.7672,26.87,27.85,35.18,0,111.5,12.96,27.71,139.7
"2016-07-26 00:44:00",1841777,0.693,183.5,2.118,0.089,25.59,110.7672,26.87,27.86,35.26,0,111.5,12.96,27.71,145.5
"2016-07-26 00:44:30",1841778,0.842,180.3,1.759,0.113,25.64,110.7674,26.87,27.89,35.24,0,111.5,12.96,27.71,142.3
"2016-07-26 00:45:00",1841779,0.995,181.6,1.751,0.064,25.59,110.7714,26.88,27.87,35.18,0,111.5,12.96,27.72,143.6
"2016-07-26 00:45:30",1841780,0.969,185.5,2.724,0.068,25.65,110.7879,26.92,27.9,35.16,0,111.5,12.96,27.77,147.5
"2016-07-26 00:46:00",1841781,0.953,188.5,2.954,0.114,25.65,110.7994,26.95,27.91,35.11,0,111.5,12.95,27.80,150.5
"2016-07-26 00:46:30",1841782,0.975,195.9,4.067,0.059,25.58,110.8008,26.95,27.92,35.1,0,111.5,12.95,27.80,157.9
"2016-07-26 00:47:00",1841783,0.889,184.1,4.721,0.094,25.79,110.8008,26.95,27.94,35.09,0,111.5,12.95,27.80,146.1
"2016-07-26 00:47:30",1841784,0.838,185.6,4.649,0.078,26.01,110.8028,26.96,27.96,35.07,0,111.5,12.95,27.80,147.6
"2016-07-26 00:48:00",1841785,0.847,189,7.074,0.066,26.12,110.8117,26.98,27.98,35.05,0,111.5,12.95,27.83,151.0
"2016-07-26 00:48:30",1841786,0.813,177.1,4.383,0.086,26.05,110.8272,27.02,27.98,34.95,0,111.5,12.95,27.87,139.1
"2016-07-26 00:49:00",1841787,0.924,177.1,2.286,0.08,26.06,110.8345,27.04,27.99,34.91,0,111.5,12.95,27.89,139.1
"2016-07-26 00:49:30",1841788,0.692,171.8,2.073,0.23,26.32,110.8345,27.04,28,34.86,0,111.5,12.95,27.89,133.8
"2016-07-26 00:50:00",1841789,0.557,172.6,3.644,0.303,26.29,110.8345,27.04,28.03,34.8,0,111.5,12.95,27.89,134.6
"2016-07-26 00:50:30",1841790,0.746,174.3,2.276,0.093,26.19,110.8364,27.04,28.04,34.74,0,111.5,12.95,27.89,136.3
"2016-07-26 00:51:00",1841791,0.897,183.6,6.127,0.141,26.25,110.8471,27.07,28.05,34.74,0,111.5,12.95,27.92,145.6
"2016-07-26 00:51:30",1841792,0.606,187,9.31,0.134,26.09,110.8574,27.1,28.07,34.74,0,111.5,12.95,27.94,149.0
"2016-07-26 00:52:00",1841793,0.874,172.1,1.763,0.136,26.37,110.8656,27.12,28.07,34.72,0,111.5,12.95,27.97,134.1
"2016-07-26 00:52:30",1841794,0.828,173,2.888,0.176,26.43,110.8678,27.13,28.08,34.72,0,111.5,12.95,27.97,135.0
"2016-07-26 00:53:00",1841795,0.531,169.6,2.848,0.227,26.54,110.8681,27.13,28.11,34.7,0,111.5,12.95,27.97,131.6
"2016-07-26 00:53:30",1841796,-0.213,244.1,67.78,0.098,26.53,110.8681,27.13,28.1,34.61,0,111.5,12.96,27.97,206.1
"2016-07-26 00:54:00",1841797,-0.07,187.3,52.72,0.23,26.53,110.8681,27.13,28.11,34.45,0,111.5,12.96,27.97,149.3
"2016-07-26 00:54:30",1841798,-0.245,179.6,97,0.06,26.53,110.8687,27.13,28.13,34.42,0,111.5,12.96,27.97,141.6
"2016-07-26 00:55:00",1841799,-0.256,300.4,74.37,0.053,26.51,110.8709,27.13,28.14,34.46,0,111.5,12.96,27.98,262.4
"2016-07-26 00:55:30",1841800,-0.239,13.77,73.85,0.064,26.52,110.8751,27.14,28.14,34.43,0,111.5,12.96,27.99,335.8
"2016-07-26 00:56:00",1841801,-0.196,33.02,57.86,0.084,26.52,110.8771,27.15,28.15,34.44,0,111.5,12.96,28.00,355.0
"2016-07-26 00:56:30",1841802,-0.226,39.67,68.96,0.097,26.52,110.8818,27.16,28.15,34.57,0,111.5,12.96,28.01,1.7
"2016-07-26 00:57:00",1841803,-0.265,25.66,70.62,0.041,26.54,110.8813,27.16,28.16,34.47,0,111.5,12.96,28.01,347.7
"2016-07-26 00:57:30",1841804,-0.234,42.59,72.99,0.079,26.54,110.886,27.17,28.17,34.43,0,111.5,12.96,28.02,4.6
"2016-07-26 00:58:00",1841805,0.079,160.7,42.63,0.36,26.57,110.8866,27.17,28.16,34.4,0,111.5,12.96,28.02,122.7
"2016-07-26 00:58:30",1841806,-0.01,164.1,51.72,0.258,26.55,110.8863,27.17,28.16,34.42,0,111.5,12.96,28.02,126.1
"2016-07-26 00:59:00",1841807,-0.176,200,86.5,0.14,26.51,110.8841,27.17,28.18,34.36,0,111.5,12.96,28.01,162.0
"2016-07-26 00:59:30",1841808,-0.085,216.6,48.53,0.122,26.49,110.8782,27.15,28.19,33.82,0,111.5,12.96,28.00,178.6
"2016-07-26 01:00:00",1841809,0.324,219.5,72.81,0.583,26.3,110.878,27.15,28.19,33.74,0,111.5,12.96,28.00,181.5
"2016-07-26 01:00:30",1841810,0.293,178.5,39.55,0.634,26.54,110.8737,27.14,28.18,34.04,0,111.5,12.96,27.99,140.5
"2016-07-26 01:01:00",1841811,0.886,187,51.3,0.885,26.53,110.8704,27.13,28.17,34.38,0,111.5,12.96,27.98,149.0
"2016-07-26 01:01:30",1841812,0.552,151,63.72,0.715,26.61,110.8703,27.13,28.17,34.25,0,111.5,12.96,27.98,113.0
"2016-07-26 01:02:00",1841813,0.15,48.29,28.25,0.166,26.56,110.8697,27.13,28.19,33.89,0,111.5,12.96,27.98,10.3
"2016-07-26 01:02:30",1841814,0.648,128.7,24.15,0.361,26.63,110.8721,27.14,28.17,33.77,0,111.5,12.96,27.98,90.7
"2016-07-26 01:03:00",1841815,0.329,177.2,73.72,0.616,26.71,110.8739,27.14,28.16,34.3,0,111.5,12.96,27.99,139.2
"2016-07-26 01:03:30",1841816,-0.062,33.45,76.78,0.161,26.63,110.8573,27.1,28.15,34.18,0,111.5,12.96,27.94,355.5
"2016-07-26 01:04:00",1841817,0.105,78.55,35.7,0.309,26.57,110.8507,27.08,28.14,34.03,0,111.5,12.96,27.93,40.6
"2016-07-26 01:04:30",1841818,-0.051,30.74,87.7,0.169,26.63,110.8453,27.07,28.13,34.02,0,111.5,12.96,27.91,352.7
"2016-07-26 01:05:00",1841819,-0.063,167.7,98.7,0.145,26.67,110.8475,27.07,28.13,34.06,0,111.5,12.96,27.92,129.7
"2016-07-26 01:05:30",1841820,0.298,159.4,56.25,0.408,26.73,110.8438,27.06,28.11,34.38,0,111.5,12.95,27.91,121.4
"2016-07-26 01:06:00",1841821,0.734,150.2,11.83,0.387,26.7,110.829,27.03,28.1,34.59,0,111.5,12.96,27.87,112.2
"2016-07-26 01:06:30",1841822,0.341,168.4,35.37,0.349,26.89,110.8241,27.01,28.09,34.88,0,111.5,12.96,27.86,130.4
"2016-07-26 01:07:00",1841823,0.214,170.2,35.93,0.434,26.85,110.8272,27.02,28.06,34.98,0,111.5,12.96,27.87,132.2
"2016-07-26 01:07:30",1841824,0.057,37.26,72.51,0.271,26.62,110.8319,27.03,28.05,34.65,0,111.5,12.96,27.88,359.3
"2016-07-26 01:08:00",1841825,0.199,74.87,18.97,0.192,26.64,110.8248,27.01,28.04,34.55,0,111.5,12.96,27.86,36.9
"2016-07-26 01:08:30",1841826,0.045,101.2,64.88,0.211,26.68,110.8088,26.97,28.02,34.58,0,111.5,12.96,27.82,63.2
"2016-07-26 01:09:00",1841827,0.011,297.4,58.08,0.191,26.62,110.8035,26.96,28,34.6,0,111.5,12.96,27.81,259.4
"2016-07-26 01:09:30",1841828,0.066,310.7,62.57,0.248,26.6,110.8041,26.96,28,34.6,0,111.5,12.96,27.81,272.7
"2016-07-26 01:10:00",1841829,0.62,165.8,41.24,0.75,26.78,110.7997,26.95,27.98,34.85,0,111.5,12.97,27.80,127.8
"2016-07-26 01:10:30",1841830,0.314,172.3,34.88,0.463,26.83,110.7893,26.92,27.95,35.05,0,111.5,12.97,27.77,134.3
"2016-07-26 01:11:00",1841831,-0.206,26.03,71.27,0.121,26.86,110.7727,26.88,27.95,35.21,0,111.5,12.97,27.73,348.0
"2016-07-26 01:11:30",1841832,0.039,16.65,65.81,0.304,26.67,110.7708,26.88,27.93,35.25,0,111.5,12.97,27.72,338.6
"2016-07-26 01:12:00",1841833,0.008,49.19,67.54,0.202,26.63,110.7708,26.88,27.92,34.81,0,111.5,12.97,27.72,11.2
"2016-07-26 01:12:30",1841834,-0.122,333.9,63.13,0.165,26.67,110.7699,26.87,27.9,34.96,0,111.5,12.97,27.72,295.9
"2016-07-26 01:13:00",1841835,0.086,4.895,38.16,0.137,26.64,110.7548,26.83,27.9,35.02,0,111.5,12.97,27.68,326.9
"2016-07-26 01:13:30",1841836,-0.099,8.52,44.46,0.146,26.62,110.7385,26.79,27.88,34.94,0,111.5,12.97,27.64,330.5
"2016-07-26 01:14:00",1841837,0.418,98.1,51.62,0.37,26.6,110.7371,26.79,27.86,34.93,0,111.5,12.97,27.63,60.1
"2016-07-26 01:14:30",1841838,-0.161,305,39.86,0.104,26.62,110.7371,26.79,27.85,34.85,0,111.5,12.97,27.63,267.0
"2016-07-26 01:15:00",1841839,0.096,85.2,43.56,0.25,26.64,110.734,26.78,27.82,35.03,0,111.4,12.98,27.63,47.2
"2016-07-26 01:15:30",1841840,0.015,100.3,40.39,0.183,26.66,110.718,26.74,27.81,35.15,0,111.4,12.97,27.59,62.3
"2016-07-26 01:16:00",1841841,0.008,97.5,51.32,0.403,26.64,110.706,26.71,27.79,35.24,0,111.4,12.97,27.55,59.5
"2016-07-26 01:16:30",1841842,0.992,173,3.925,0.383,26.53,110.7035,26.7,27.79,35.4,0,111.4,12.97,27.55,135.0
"2016-07-26 01:17:00",1841843,0.888,170,38.17,0.698,26.76,110.7029,26.7,27.76,35.58,0,111.4,12.97,27.55,132.0
"2016-07-26 01:17:30",1841844,0.78,167.1,13.4,0.743,26.83,110.6875,26.66,27.75,35.98,0,111.4,12.98,27.51,129.1
"2016-07-26 01:18:00",1841845,-0.142,337.8,86.7,0.189,26.74,110.6782,26.64,27.74,35.99,0,111.4,12.98,27.48,299.8
"2016-07-26 01:18:30",1841846,-0.136,82.6,71.97,0.18,26.71,110.6738,26.63,27.73,35.76,0,111.4,12.98,27.47,44.6
"2016-07-26 01:19:00",1841847,0.45,157.7,29.92,0.481,26.75,110.6773,26.64,27.71,35.79,0,111.4,12.98,27.48,119.7
"2016-07-26 01:19:30",1841848,1.015,174.2,0.552,0.075,26.65,110.6819,26.65,27.71,36.36,0,111.4,12.98,27.49,136.2
"2016-07-26 01:20:00",1841849,0.857,175.9,37.52,0.569,26.67,110.6878,26.66,27.69,36.62,0,111.4,12.98,27.51,137.9
"2016-07-26 01:20:30",1841850,0.41,173.2,16.63,0.491,26.7,110.6829,26.65,27.69,36.48,0,111.4,12.98,27.49,135.2
"2016-07-26 01:21:00",1841851,0.63,171.3,4.547,0.41,26.76,110.6706,26.62,27.67,36.44,0,111.4,12.97,27.46,133.3
"2016-07-26 01:21:30",1841852,0.751,173.1,2.908,0.318,26.77,110.6639,26.6,27.66,36.51,0,111.4,12.97,27.45,135.1
"2016-07-26 01:22:00",1841853,1.116,173.5,0.797,0.058,26.65,110.6641,26.6,27.66,36.66,0,111.4,12.97,27.45,135.5
"2016-07-26 01:22:30",1841854,1.071,173.9,0.569,0.065,26.67,110.665,26.6,27.64,36.88,0,111.4,12.97,27.45,135.9
"2016-07-26 01:23:00",1841855,1.052,173.9,1.245,0.06,26.68,110.6669,26.61,27.65,37.01,0,111.4,12.97,27.45,135.9
"2016-07-26 01:23:30",1841856,0.894,177,1.162,0.063,26.79,110.6681,26.61,27.64,37.05,0,111.4,12.97,27.46,139.0
"2016-07-26 01:24:00",1841857,0.887,177.7,2.065,0.062,26.8,110.6615,26.59,27.62,37.09,0,111.4,12.97,27.44,139.7
"2016-07-26 01:24:30",1841858,0.929,188.3,2.033,0.061,26.92,110.6527,26.57,27.61,37.25,0,111.4,12.97,27.42,150.3
"2016-07-26 01:25:00",1841859,0.914,183.8,2.067,0.063,26.87,110.6475,26.56,27.6,37.3,0,111.4,12.97,27.40,145.8
"2016-07-26 01:25:30",1841860,1.028,177.4,3.565,0.08,26.64,110.6396,26.54,27.59,37.23,0,111.4,12.97,27.38,139.4
"2016-07-26 01:26:00",1841861,0.488,183.2,19.24,0.626,26.64,110.6382,26.53,27.59,36.53,0,111.4,12.97,27.38,145.2
"2016-07-26 01:26:30",1841862,-0.232,205.3,21.47,0.062,26.74,110.6397,26.54,27.58,35.72,0,111.4,12.97,27.38,167.3
"2016-07-26 01:27:00",1841863,0.012,184.4,17.49,0.218,26.57,110.6397,26.54,27.56,35.8,0,111.4,12.98,27.38,146.4
"2016-07-26 01:27:30",1841864,0.273,202.6,8.42,0.093,26.79,110.6386,26.54,27.56,36.28,0,111.4,12.98,27.38,164.6
"2016-07-26 01:28:00",1841865,0.586,214.2,5.331,0.212,26.67,110.6369,26.53,27.53,36.68,0,111.4,12.98,27.38,176.2
"2016-07-26 01:28:30",1841866,0.913,213.9,8.49,0.183,26.88,110.633,26.52,27.53,36.9,0,111.4,12.98,27.37,175.9
"2016-07-26 01:29:00",1841867,0.749,220.3,7.962,0.26,26.77,110.6232,26.5,27.53,37.18,0,111.4,12.98,27.34,182.3
"2016-07-26 01:29:30",1841868,0.729,214.1,3.604,0.147,26.72,110.6131,26.47,27.51,37.18,0,111.4,12.98,27.31,176.1
"2016-07-26 01:30:00",1841869,0.627,241.4,16.65,0.223,26.68,110.6066,26.45,27.5,37.31,0,111.4,12.98,27.30,203.4
"2016-07-26 01:30:30",1841870,0.19,252.8,14.29,0.155,26.57,110.6061,26.45,27.48,36.95,0,111.4,12.98,27.30,214.8
"2016-07-26 01:31:00",1841871,0.472,252.8,8.13,0.099,26.67,110.6061,26.45,27.48,36.94,0,111.4,12.98,27.30,214.8
"2016-07-26 01:31:30",1841872,0.177,264.9,8.13,0.073,26.6,110.6049,26.45,27.46,36.44,0,111.4,12.98,27.29,226.9
"2016-07-26 01:32:00",1841873,0.299,262.1,7.798,0.144,26.54,110.583,26.39,27.45,36.17,0,111.4,12.98,27.24,224.1
"2016-07-26 01:32:30",1841874,0.322,275.2,15.71,0.205,26.47,110.5724,26.37,27.41,36.27,0,111.4,12.98,27.21,237.2
"2016-07-26 01:33:00",1841875,0.143,262.8,49.38,0.258,26.44,110.5536,26.32,27.39,36.72,0,111.4,12.98,27.16,224.8
"2016-07-26 01:33:30",1841876,1.079,246.3,93.1,1.221,26.26,110.5306,26.26,27.35,36.33,0,111.4,12.98,27.10,208.3
"2016-07-26 01:34:00",1841877,1.835,280,17.52,0.367,26.19,110.505,26.19,27.29,36.28,0,111.4,12.98,27.04,242.0
"2016-07-26 01:34:30",1841878,3.015,274.1,9.84,0.968,26.38,110.4947,26.17,27.23,36.49,0,111.4,12.98,27.01,236.1
"2016-07-26 01:35:00",1841879,5.136,291.6,13.75,0.37,26.41,110.4862,26.14,27.2,36.21,0,111.4,12.98,26.99,253.6
"2016-07-26 01:35:30",1841880,4.158,304.2,4.735,0.32,26.3,110.4739,26.11,27.18,35.97,0,111.4,12.98,26.96,266.2
"2016-07-26 01:36:00",1841881,4.398,301.7,5.28,0.3,26.44,110.4714,26.11,27.16,35.77,0,111.4,12.98,26.95,263.7
"2016-07-26 01:36:30",1841882,4.339,297.8,4.414,0.56,26.47,110.466,26.09,27.11,36.02,0,111.4,12.98,26.94,259.8
"2016-07-26 01:37:00",1841883,3.076,311.2,3.726,0.297,26.37,110.454,26.06,27.11,36.28,0,111.4,12.98,26.90,273.2
"2016-07-26 01:37:30",1841884,3.14,312.3,10.87,0.192,26.41,110.443,26.03,27.08,36.48,0,111.4,12.98,26.88,274.3
"2016-07-26 01:38:00",1841885,3.288,307.9,3.713,0.206,26.5,110.4377,26.02,27.08,36.48,0,111.4,12.98,26.86,269.9
"2016-07-26 01:38:30",1841886,2.99,313.3,12.97,0.501,26.53,110.4377,26.02,27.08,36.63,0,111.4,12.98,26.86,275.3
"2016-07-26 01:39:00",1841887,2.442,323.9,6.904,0.316,26.52,110.4377,26.02,27.08,36.61,0,111.4,12.98,26.86,285.9
"2016-07-26 01:39:30",1841888,2.262,326.7,5.078,0.229,26.47,110.4353,26.01,27.08,36.67,0,111.4,12.98,26.86,288.7
"2016-07-26 01:40:00",1841889,2.639,325,4.317,0.156,26.54,110.4229,25.98,27.04,36.71,0,111.4,12.98,26.82,287.0
"2016-07-26 01:40:30",1841890,2.723,319.4,6.568,0.269,26.48,110.4161,25.96,27.04,36.8,0,111.4,12.98,26.81,281.4
"2016-07-26 01:41:00",1841891,2.413,327.8,6.228,0.263,26.54,110.4112,25.95,27.04,36.89,0,111.4,12.98,26.79,289.8
"2016-07-26 01:41:30",1841892,2.864,318.8,8.12,0.38,26.56,110.4164,25.96,27.02,36.65,0,111.4,12.98,26.81,280.8
"2016-07-26 01:42:00",1841893,3.186,319.4,3.517,0.648,26.52,110.4267,25.99,26.99,35.59,0,111.4,12.98,26.83,281.4
"2016-07-26 01:42:30",1841894,4.191,321.2,3.084,0.354,26.58,110.431,26,26.98,33.06,0,111.4,12.98,26.84,283.2
"2016-07-26 01:43:00",1841895,4.881,338,6.165,0.55,26.59,110.431,26,26.98,32.28,0,111.4,12.98,26.84,300.0
"2016-07-26 01:43:30",1841896,4.77,328.3,7.533,0.345,26.54,110.4326,26.01,26.95,31.48,0,111.4,12.98,26.85,290.3
"2016-07-26 01:44:00",1841897,5.347,328.3,8.11,0.721,26.5,110.4353,26.01,26.94,29.94,0,111.4,12.98,26.86,290.3
"2016-07-26 01:44:30",1841898,6.27,319.7,2.655,0.253,26.42,110.4391,26.02,26.95,28.59,0,111.4,12.99,26.87,281.7
"2016-07-26 01:45:00",1841899,4.912,318.2,5.125,0.588,26.51,110.4391,26.02,26.94,30.67,0,111.4,12.99,26.87,280.2
"2016-07-26 01:45:30",1841900,4.279,314.3,4.07,0.245,26.51,110.4381,26.02,26.94,32.18,0,111.4,12.99,26.86,276.3
"2016-07-26 01:46:00",1841901,5.298,325.7,7.034,0.365,26.55,110.4356,26.01,26.94,31.23,0,111.4,12.99,26.86,287.7
"2016-07-26 01:46:30",1841902,5.288,323.7,5.107,0.407,26.53,110.432,26,26.95,30.18,0,111.4,12.99,26.85,285.7